Location: Dominguez Junction
(33.8634°N, 118.2179°W)
Time: 17:33:09
(UTC+00:00)

OAO 1 - Pass Details

Date: 29 October 2020
Orbit: 773 x 784 km, 35.0° (Epoch: 24 November)

Event Time Altitude Azimuth Distance (km) Brightness Sun altitude
Exits shadow 13:03:36 20° 260° (W) 1,729 5.7 -14.3°
Maximum altitude 13:07:28 89° 346° (NNW) 776 4.5 -13.5°
Drops below altitude 10° 13:12:58 10° 80° (E) 2,318 8.3 -12.4°
Sets 13:15:27 0° 81° (E) 3,248 9.3 -11.9°
